#timestamp,LO_Frequency,Hit,StdDev 
1504814415.2,286047000.9,N,1.5
1504814435.1,286047000.6,N,1.5
1504814436.0,286047000.6,N,1.4
1504814455.8,286046999.9,N,1.4
1504814475.7,286047002.7,N,1.4
1504814495.5,286047002.4,N,1.4
1504814515.3,286047002.7,N,1.5
1504814535.2,286047001.9,N,1.4
1504814555.0,286047002.1,N,1.4
1504814555.9,286047002.1,N,1.4
1504814575.8,286047002.0,N,1.4
1504814595.6,286047002.5,N,1.4
1504814615.4,286047001.5,N,1.4
1504814635.3,286047001.6,N,1.3
1504814655.1,286047001.5,N,1.4
1504814675.9,286047001.4,N,1.4
1504814695.7,286047003.9,N,1.5
1504814715.5,286047003.2,N,1.4
1504814735.4,286047005.5,Y,0.0
1504814755.2,286047003.8,P,1.3
1504814775.0,286047001.4,N,1.2
1504814775.9,286047001.4,N,1.1
1504814795.8,286047002.9,N,1.0
1504814815.6,286047005.9,Y,0.0
1504814835.5,286047002.1,P,0.0
1504814855.3,286047003.6,P,0.7
1504814875.1,286047003.3,P,0.7
1504814895.9,286047004.1,Y,0.0
1504814915.7,286046999.8,P,1.5
1504814935.6,286047000.0,N,1.4
1504814955.4,286047000.2,N,1.2
1504814975.2,286047000.2,N,1.1
1504814995.1,286046999.8,N,1.0
1504814996.0,286046999.8,N,1.0
1504815015.8,286046999.7,N,1.0
1504815035.7,286047000.2,N,0.9
1504815055.5,286047000.9,N,0.9
1504815075.3,286047000.6,N,0.8
1504815095.2,286047002.7,Y,0.0
1504815115.0,286047002.5,P,1.1
1504815115.9,286047002.5,N,1.0
1504815135.8,286047002.1,N,0.9
1504815155.6,286047002.8,Y,0.0
1504815175.5,286047001.2,P,0.3
1504815195.3,286046998.8,P,1.3
1504815215.1,286046998.5,N,1.5
1504815235.9,286046998.2,N,1.5
1504815255.7,286046998.2,N,1.5
1504815275.5,286046998.8,N,1.4
1504815295.4,286046999.2,N,1.3
1504815315.2,286046996.9,N,1.5
1504815335.1,286046998.1,N,1.4
1504815336.0,286046998.1,N,1.4
1504815355.8,286047000.8,N,1.4
1504815375.6,286046998.5,N,1.4
1504815395.5,286047000.7,N,1.4
1504815415.3,286047000.5,N,1.4
1504815435.2,286047000.7,N,1.4
1504815455.9,286046998.2,N,1.4
1504815475.7,286047001.0,N,1.4
1504815495.6,286047000.3,N,1.4
1504815515.4,286042673.8,Y,0.0
1504815535.2,286047002.7,P,1.7
1504815555.1,286047002.4,N,1.5
1504815556.0,286047002.4,N,1.3
1504815575.8,286047002.6,N,1.3
1504815595.7,286047002.8,N,1.2
1504815615.5,286046999.8,N,1.4
1504815635.3,286047002.7,N,1.3
1504815655.2,286047001.9,N,1.2
1504815675.0,286047003.9,Y,0.0
1504815675.9,286047003.9,P,1.0
1504815695.8,286047002.5,N,0.9
1504815715.6,286047000.0,N,1.4
1504815735.5,286047000.7,N,1.4
1504815755.3,286047000.8,N,1.3
1504815775.1,286047001.1,N,1.2
1504815795.9,286046998.3,N,1.6
1504815815.7,286046998.3,N,1.7
1504815835.6,286046998.5,N,1.8
1504815855.4,286046998.3,N,1.8
1504815875.2,286046998.7,N,1.8
1504815895.1,286047000.9,N,1.7
1504815896.0,286047000.9,N,1.7
1504815915.8,286047001.1,N,1.6
1504815935.6,286046998.5,N,1.7
1504815955.5,286046998.7,N,1.6
1504815975.3,286046998.3,N,1.7
1504815995.2,286047000.7,N,1.6
1504816015.9,286046998.1,N,1.6
1504816035.7,286046998.5,N,1.6
1504816055.6,286046999.9,N,1.6
1504816075.4,286047002.4,N,1.6
1504816095.3,286047002.2,N,1.7
1504816115.1,286046999.7,N,1.6
1504816116.0,286046999.7,N,1.6
1504816135.8,286047002.5,N,1.6
1504816155.7,286047002.0,N,1.6
1504816175.5,286047002.8,N,1.7
1504816195.4,286047000.1,N,1.6
1504816215.2,286046999.9,N,1.6
1504816235.0,286047000.3,N,1.5
1504816235.9,286047000.3,N,1.4
1504816255.8,286047002.4,N,1.5
1504816275.6,286047001.5,N,1.5
1504816295.5,286047001.9,N,1.5
1504816315.3,286047004.2,N,1.7
1504816335.1,286047001.4,N,1.6
1504816355.9,286046999.8,N,1.6
1504816375.7,286047002.4,N,1.6
1504816395.5,286047002.8,N,1.6
1504816415.4,286047002.7,N,1.6
1504816435.2,286047002.0,N,1.6
1504816455.1,286046999.7,N,1.6
1504816456.0,286046999.7,N,1.6
1504816475.8,286046999.7,N,1.6
1504816495.6,286047000.0,N,1.5
1504816515.5,286046999.8,N,1.5
1504816535.3,286047001.8,N,1.5
1504816555.2,286047003.8,N,1.4
1504816575.9,286047001.9,N,1.4
1504816595.7,286047004.1,N,1.4
1504816615.6,286047001.7,N,1.4
1504816635.4,286047004.1,N,1.5
1504816655.2,286047001.4,N,1.4
1504816675.1,286047001.4,N,1.4
1504816676.0,286047001.4,N,1.4
1504816695.8,286047004.0,N,1.5
1504816715.7,286047001.6,N,1.4
1504816735.5,286047002.6,N,1.4
1504816755.3,286047001.7,N,1.4
1504816775.2,286047004.3,Y,0.0
1504816795.0,286046999.8,P,1.0
1504816795.9,286046999.8,N,0.9
1504816815.8,286047002.5,N,1.2
1504816835.6,286047000.0,N,1.1
1504816855.4,286047000.1,N,1.1
1504816875.3,286047002.7,N,1.2
1504816895.1,286047002.7,N,1.3
1504816915.9,286047002.3,N,1.3
1504816935.7,286047002.7,N,1.3
1504816955.5,286047002.2,N,1.2
1504816975.4,286047001.5,N,1.2
1504816995.2,286047000.1,N,1.2
1504817015.0,286047001.5,N,1.1
1504817016.0,286047001.5,N,1.1
1504817035.8,286047001.5,N,1.1
1504817055.6,286047001.7,N,1.0
1504817075.5,286047002.2,N,1.0
1504817095.3,286047002.4,N,1.0
1504817115.1,286047002.8,N,1.0
1504817135.9,286047002.8,N,1.0
1504817155.7,286047002.2,N,1.0
1504817175.6,286047002.0,N,1.0
1504817195.4,286047002.5,N,1.0
1504817215.2,286047002.4,N,1.0
1504817235.1,286047001.7,N,1.0
1504817236.0,286047001.7,N,0.9
1504817255.8,286047002.1,N,0.9
1504817275.7,286047002.0,N,0.9
1504817295.5,286047002.6,N,0.9
1504817315.3,286047002.4,N,0.9
1504817335.2,286047002.0,N,0.8
1504817355.0,286047001.9,N,0.7
1504817355.9,286047001.9,N,0.7
1504817375.7,286047001.9,N,0.6
1504817395.6,286047003.9,Y,0.0
1504817415.4,286047000.6,P,0.7
1504817435.3,286047001.1,N,0.6
1504817455.1,286047000.9,N,0.5
1504817475.8,286047000.8,N,0.5
1504817495.7,286047000.5,N,0.5
1504817515.5,286047000.1,N,0.6
1504817535.4,286047000.9,N,0.5
1504817555.2,286046998.4,Y,0.0
1504817575.0,286046998.7,P,1.1
1504817575.9,286046998.7,N,1.0
1504817595.8,286046998.7,N,0.9
1504817615.6,286046996.5,Y,0.0
1504817635.5,286046998.9,P,0.2
1504817655.3,286046998.5,P,0.3
1504817675.1,286047001.1,P,1.0
1504817695.9,286046998.3,N,1.0
1504817715.7,286046998.1,N,1.0
1504817735.6,286047001.2,N,1.2
1504817755.4,286047001.2,N,1.3
1504817775.2,286046998.8,N,1.2
1504817795.1,286047000.5,N,1.2
1504817796.0,286047000.5,N,1.2
1504817815.8,286047000.2,N,1.1
1504817835.6,286047000.4,N,1.1
1504817855.5,286047000.2,N,1.1
1504817875.4,286047002.6,N,1.3
1504817895.3,286046999.9,N,1.2
1504817915.1,286047000.1,N,1.2
1504817935.8,286047002.6,N,1.3
1504817955.7,286046999.7,N,1.3
1504817975.5,286047002.8,N,1.4
1504817995.4,286046999.7,N,1.3
